Location: Derby
(52.9213°N, 1.4761°W)
Time: 15:29:06
(UTC+01:00)

A-11 Canister half - Pass Details

Date: 26 May 2025
Orbit: 1524 x 1684 km, 47.3° (Epoch: 14 June)

Event Time Altitude Azimuth Distance (km) Brightness Sun altitude
Rises 00:10:25 0° 284° (WNW) 4,763 12.0 -15.1°
Reaches altitude 10° 00:13:44 10° 276° (W) 3,798 11.3 -15.2°
Maximum altitude 00:22:16 37° 214° (SW) 2,332 9.6 -15.4°
Enters shadow 00:28:19 20° 162° (SSE) 3,186 10.0 -15.6°
